STARLINK-5362 (55493 NORAD) Tracking and Keplerian Element Data

This shows tracking and keplerian element data for the satellite.

Feedback or suggestion? Click here.




ElementValue
Catalog55493
NameSTARLINK-5362
Epoch Orbit130
Epoch Day84.91667824
Epoch Year2023
RAAN86.0665
Inclination43.0002
Eccentricity0.0001582
Argument of Perigee264.9702
Mean Anonmoly293.7021
Mean Motion15.04466902
Decay Rate0.00041837
L11 55493U 23015AW 23084.91667824 .00041837 00000+0 29388-2 0 9991
L22 55493 43.0002 86.0665 0001582 264.9702 293.7021 15.04466902 1309



Live tracking and technical data element details for STARLINK-5362 (NORAD 55493). STARLINK-5362 can be tracked NOW for your location showing map with azimuth and elevation plus other details from your city location.







IsCatalogInMostPopularTable: catalog: 55493, numindb: -1

Insert: records affected: 1


GetName: 55493 STARLINK-5362

Hit Count: inserted at: Tue, 28 Mar 2023 03:11:20 GMT